Misión y Visión

La misión es proporcionar información fiable a la navegación aérea, contribuyendo a la seguridad, regularidad y eficiencia de la Navegación Aérea Internacional

La visión es contribuir sustancialmente al desarrollo de conocimientos y a la utilización de la meteorología aeronáutica a nivel nacional e internacional, mediante la innovación y la coparticipación con sectores sociales y productivos de la sociedad.

 
  Inicio
  Metar
  Taf
  Wintemp
  SIGMET
  Avisos
  Pronósticos
  Carpeta Meteorologica
  Imágenes Satelitales
  Climatología Aeronáutica
   
  ¿Quienes Somos?
  Contacto
  Eventos
  Publicaciones
  Politica de la Calidad
Taf

DIRECCIONES PARA INFORMES NACIONALES E INTERNACIONALES
(Metar /Speci - TAF)

http://adds.aviationweather.gov/tafs/index.php

http://www.ogimet.com/metars.phtml

PRONÓSTICOS DE AERÓDROMO

Cuando sea necesario, el encabezamiento abreviado puede incluir un cuarto grupo consistente en tres letras para identificar los boletines demorados (RRA), corregidos (CCA) o enmendados (AAA). Los boletines adicionales demorados, corregidos o enmendados deben identificarse con las letras RRB, RRC, etc.; CCB, CCC,etc.;AAB, AAC,etc.

 

DÍA 24/10/2014

 

TAF 

MPTO

TAF MPTO 241000Z 2412/2512 05006KT 9999 SCT017
BECMG 2416/2419 18008KT 8000 -TSRA FEW015CB SCT018
BECMG 2420/2424 05008KT 9999 NSW SCT020=

 

     TAF MPPA

TAF MPPA 241000Z 2412/2512 33006KT 9999 SCT018
BECMG 2416/2419 21008KT 8000 -TSRA FEW015CB SCT018
BECMG 2420/2424 21006KT 9999 NSW FEW018=

 
 

TAF MPMG 240400Z 2406/2418 00000KT 9999 FEW018
BECMG 2410/2414 13006KT SCT018
BECMG 2414/2418 18008KT 9999 SCT020 SCT080=

 

TAF MPDA 

 

TAF MPDA 240400Z 2406/2418 00000KT 9999 FEW015CB BKN080
BECMG 2410/2414 09006KT SCT020
BECMG 2414/2418 22008KT 9999 SCT018 SCT080=

 

 
 















  Noticias AAC
  Directorio
  Contáctenos
  Historia
  Quejas y Sugerencias
  Etica y Transparencia

  Gestión SSP/SMS
  Seguridad Aérea
  Navegación Aérea
  Transporte Aéreo

  Tramites
  Áeronaves de Alquiler

  Meteorología
  I.S.F.P.A
  Notam
  Peligro Aviario
  AVSEC
  UPIA
  Permisos
 




DECLARACIÓN DE PRIVACIDAD